�������l�o���
Date,Time,MP-1(��Sv/h),MP-2(��Sv/h),MP-3(��Sv/h),MP-4(��Sv/h),MP-5(��Sv/h),MP-6(��Sv/h),MP-7(��Sv/h),MP-8(��Sv/h),����,����(m/s),���J
2021/12/06,00:00,0.576,0.866,0.547,1.065,0.742,0.349,0.608,0.576,��,1.4,��
2021/12/06,00:10,0.576,0.867,0.548,1.064,0.743,0.349,0.608,0.576,��,1.5,��
2021/12/06,00:20,0.576,0.866,0.545,1.063,0.741,0.349,0.607,0.577,��,2.0,��
2021/12/06,00:30,0.577,0.867,0.548,1.064,0.742,0.350,0.608,0.575,��,1.7,��
2021/12/06,00:40,0.576,0.865,0.548,1.066,0.739,0.348,0.607,0.577,���k��,1.4,��
2021/12/06,00:50,0.576,0.867,0.548,1.063,0.743,0.350,0.608,0.578,���k��,1.7,��
2021/12/06,01:00,0.576,0.866,0.551,1.066,0.741,0.349,0.607,0.577,��,1.4,��
2021/12/06,01:10,0.576,0.867,0.549,1.065,0.742,0.349,0.608,0.578,���쐼,1.2,��
2021/12/06,01:20,0.576,0.866,0.547,1.063,0.742,0.350,0.607,0.577,��,1.2,��
2021/12/06,01:30,0.576,0.867,0.548,1.065,0.743,0.348,0.607,0.577,��,1.5,��
2021/12/06,01:40,0.577,0.867,0.548,1.063,0.743,0.348,0.608,0.576,��,1.7,��
2021/12/06,01:50,0.577,0.866,0.548,1.065,0.741,0.349,0.608,0.577,��,1.4,��
2021/12/06,02:00,0.577,0.866,0.548,1.066,0.742,0.349,0.608,0.576,���쐼,1.4,��
2021/12/06,02:10,0.576,0.868,0.547,1.064,0.743,0.348,0.607,0.577,���쐼,1.4,��
2021/12/06,02:20,0.577,0.866,0.549,1.065,0.743,0.349,0.608,0.577,���쐼,1.5,��
2021/12/06,02:30,0.576,0.865,0.549,1.064,0.742,0.350,0.607,0.578,���쐼,1.7,��
2021/12/06,02:40,0.577,0.866,0.548,1.065,0.742,0.349,0.607,0.577,���쐼,2.0,��
2021/12/06,02:50,0.576,0.866,0.548,1.063,0.741,0.349,0.609,0.577,�쐼,1.9,��
2021/12/06,03:00,0.577,0.868,0.550,1.065,0.741,0.348,0.608,0.576,�쐼,1.4,��
2021/12/06,03:10,0.577,0.868,0.547,1.063,0.741,0.350,0.609,0.578,�쐼,0.9,��
2021/12/06,03:20,0.578,0.864,0.547,1.064,0.741,0.349,0.608,0.577,�쐼,1.1,��
2021/12/06,03:30,0.577,0.865,0.547,1.065,0.742,0.348,0.606,0.577,���쐼,1.2,��
2021/12/06,03:40,0.576,0.867,0.549,1.064,0.742,0.350,0.608,0.578,���쐼,1.5,��
2021/12/06,03:50,0.576,0.867,0.548,1.063,0.741,0.349,0.607,0.575,�쐼,0.6,��
2021/12/06,04:00,0.576,0.865,0.546,1.064,0.742,0.349,0.607,0.577,��,0.8,��
2021/12/06,04:10,0.576,0.866,0.549,1.065,0.742,0.349,0.608,0.578,���쐼,0.9,��
2021/12/06,04:20,0.576,0.866,0.547,1.063,0.744,0.349,0.608,0.576,���쐼,0.6,��
2021/12/06,04:30,0.576,0.866,0.549,1.063,0.742,0.348,0.608,0.577,��,0.8,��
2021/12/06,04:40,0.576,0.865,0.551,1.066,0.742,0.349,0.607,0.577,���쐼,0.9,��
2021/12/06,04:50,0.576,0.866,0.549,1.063,0.741,0.351,0.608,0.577,���쐼,1.1,��
2021/12/06,05:00,0.579,0.866,0.548,1.064,0.743,0.349,0.611,0.576,���쐼,1.1,��
2021/12/06,05:10,0.577,0.866,0.548,1.063,0.744,0.349,0.608,0.578,�쐼,1.4,��
2021/12/06,05:20,0.576,0.865,0.550,1.066,0.741,0.350,0.609,0.577,���쐼,0.9,��
2021/12/06,05:30,0.579,0.867,0.548,1.064,0.743,0.350,0.609,0.577,��,0.9,��
2021/12/06,05:40,0.578,0.865,0.549,1.065,0.744,0.350,0.609,0.577,��,1.2,��
2021/12/06,05:50,0.578,0.866,0.549,1.067,0.740,0.349,0.610,0.577,���k��,0.8,��
2021/12/06,06:00,0.578,0.867,0.548,1.067,0.742,0.350,0.608,0.576,�k��,1.2,��
2021/12/06,06:10,0.578,0.866,0.549,1.065,0.742,0.349,0.608,0.577,�k�k��,0.9,��
2021/12/06,06:20,0.576,0.866,0.549,1.065,0.742,0.349,0.608,0.577,�k�k��,0.8,��
2021/12/06,06:30,0.579,0.867,0.549,1.065,0.744,0.349,0.609,0.578,�k�k��,0.9,��
2021/12/06,06:40,0.578,0.867,0.549,1.065,0.743,0.348,0.608,0.578,�k�k��,1.5,��
2021/12/06,06:50,0.578,0.866,0.550,1.067,0.742,0.350,0.609,0.578,�k�k��,1.7,��
2021/12/06,07:00,0.578,0.868,0.550,1.066,0.744,0.350,0.609,0.577,�k,1.7,��
2021/12/06,07:10,0.578,0.864,0.550,1.068,0.742,0.349,0.609,0.578,�k�k��,2.6,��
2021/12/06,07:20,0.579,0.868,0.549,1.065,0.744,0.350,0.610,0.578,�k�k��,2.3,��
2021/12/06,07:30,0.577,0.867,0.550,1.065,0.744,0.351,0.609,0.578,�k��,2.0,��
2021/12/06,07:40,0.579,0.868,0.549,1.065,0.743,0.351,0.608,0.577,�k��,1.7,��
2021/12/06,07:50,0.578,0.868,0.549,1.065,0.743,0.351,0.609,0.576,�k��,2.0,��
2021/12/06,08:00,0.578,0.866,0.550,1.067,0.745,0.349,0.610,0.577,�k�k��,0.9,��
2021/12/06,08:10,0.580,0.867,0.551,1.066,0.742,0.350,0.608,0.577,�k�k��,0.6,��
2021/12/06,08:20,0.579,0.867,0.551,1.065,0.742,0.350,0.608,0.577,��,1.1,��
2021/12/06,08:30,0.580,0.867,0.550,1.065,0.743,0.349,0.609,0.577,���쓌,0.6,��
2021/12/06,08:40,0.580,0.868,0.551,1.065,0.743,0.350,0.610,0.578,-,CALM,��
2021/12/06,08:50,0.578,0.867,0.551,1.066,0.743,0.351,0.610,0.577,-,CALM,��
2021/12/06,09:00,0.579,0.867,0.550,1.065,0.743,0.350,0.611,0.578,�k��,0.6,��
2021/12/06,09:10,0.579,0.865,0.550,1.067,0.743,0.351,0.609,0.578,�k��,1.4,��
2021/12/06,09:20,0.581,0.869,0.549,1.064,0.744,0.351,0.610,0.577,-,CALM,��
2021/12/06,09:30,0.581,0.866,0.551,1.065,0.743,0.351,0.612,0.577,-,CALM,��
2021/12/06,09:40,0.581,0.867,0.552,1.065,0.744,0.351,0.609,0.579,���쐼,1.1,��
2021/12/06,09:50,0.581,0.865,0.550,1.066,0.743,0.350,0.609,0.577,��쓌,1.2,��
2021/12/06,10:00,0.581,0.866,0.547,1.063,0.742,0.351,0.610,0.579,��쓌,1.5,��
2021/12/06,10:10,0.580,0.868,0.550,1.065,0.744,0.350,0.608,0.579,��,1.1,��
2021/12/06,10:20,0.580,0.866,0.549,1.065,0.745,0.350,0.609,0.580,��쓌,1.2,��
2021/12/06,10:30,0.580,0.866,0.550,1.065,0.743,0.353,0.608,0.579,��쓌,1.1,��
2021/12/06,10:40,0.580,0.864,0.550,1.066,0.742,0.352,0.608,0.578,���쓌,1.4,��
2021/12/06,10:50,0.581,0.864,0.551,1.066,0.745,0.350,0.608,0.577,���쓌,2.3,��
2021/12/06,11:00,0.578,0.863,0.549,1.068,0.744,0.348,0.608,0.577,-,CALM,��
2021/12/06,11:10,0.578,0.865,0.552,1.066,0.744,0.348,0.608,0.579,���쓌,1.5,��
2021/12/06,11:20,0.579,0.863,0.551,1.067,0.744,0.349,0.608,0.578,�쓌,1.4,�L
2021/12/06,11:30,0.579,0.864,0.552,1.067,0.746,0.349,0.609,0.579,�쓌,1.7,��
2021/12/06,11:40,0.581,0.863,0.552,1.066,0.744,0.350,0.608,0.578,�쓌,1.9,��
2021/12/06,11:50,0.580,0.864,0.551,1.064,0.744,0.348,0.609,0.578,���쓌,2.2,��
2021/12/06,12:00,0.579,0.864,0.551,1.065,0.744,0.349,0.610,0.577,��,2.0,��
2021/12/06,12:10,0.581,0.865,0.551,1.067,0.744,0.350,0.608,0.578,��,1.9,��
2021/12/06,12:20,0.582,0.865,0.552,1.067,0.744,0.351,0.609,0.578,��,2.3,��
2021/12/06,12:30,0.581,0.867,0.551,1.066,0.745,0.351,0.609,0.578,�k��,1.7,��
2021/12/06,12:40,0.582,0.867,0.551,1.068,0.743,0.351,0.611,0.576,��,2.0,��
2021/12/06,12:50,0.583,0.867,0.551,1.067,0.744,0.351,0.609,0.576,��,2.0,��
2021/12/06,13:00,0.580,0.868,0.551,1.066,0.743,0.351,0.609,0.578,��,1.5,��
2021/12/06,13:10,0.581,0.869,0.551,1.066,0.742,0.351,0.609,0.579,���쓌,1.7,��
2021/12/06,13:20,0.580,0.867,0.552,1.067,0.743,0.351,0.610,0.578,��,1.7,��
2021/12/06,13:30,0.582,0.869,0.552,1.069,0.742,0.351,0.609,0.577,���쓌,1.4,��
2021/12/06,13:40,0.579,0.868,0.551,1.066,0.745,0.351,0.611,0.577,��,1.9,��
2021/12/06,13:50,0.580,0.867,0.551,1.066,0.744,0.353,0.610,0.578,���쓌,1.5,��
2021/12/06,14:00,0.581,0.868,0.552,1.067,0.743,0.351,0.608,0.577,���쓌,0.9,��
2021/12/06,14:10,0.582,0.868,0.552,1.066,0.744,0.351,0.609,0.577,��,1.1,��
2021/12/06,14:20,0.579,0.870,0.551,1.065,0.744,0.352,0.610,0.578,�쓌,1.7,��
2021/12/06,14:30,0.581,0.870,0.550,1.066,0.744,0.352,0.609,0.580,��,0.9,��
2021/12/06,14:40,0.581,0.870,0.551,1.067,0.743,0.350,0.610,0.579,�k��,0.9,��
2021/12/06,14:50,0.582,0.870,0.551,1.068,0.744,0.351,0.610,0.578,��,1.1,��
2021/12/06,15:00,0.582,0.869,0.552,1.069,0.745,0.350,0.609,0.578,�k�k��,0.6,��
2021/12/06,15:10,0.582,0.869,0.551,1.067,0.745,0.350,0.610,0.580,-,CALM,��
2021/12/06,15:20,0.580,0.870,0.551,1.066,0.744,0.351,0.609,0.579,��,0.6,��
2021/12/06,15:30,0.581,0.871,0.551,1.068,0.743,0.351,0.610,0.578,-,CALM,��
2021/12/06,15:40,0.581,0.870,0.551,1.067,0.745,0.352,0.609,0.577,���쐼,0.6,��
2021/12/06,15:50,0.582,0.872,0.550,1.066,0.744,0.351,0.612,0.578,-,CALM,��
2021/12/06,16:00,0.582,0.870,0.552,1.067,0.746,0.352,0.610,0.579,�k��,0.6,��
2021/12/06,16:10,0.580,0.871,0.551,1.068,0.744,0.351,0.608,0.577,-,CALM,��
2021/12/06,16:20,0.581,0.870,0.550,1.064,0.745,0.351,0.611,0.578,-,CALM,��
2021/12/06,16:30,0.580,0.870,0.550,1.064,0.744,0.351,0.610,0.578,-,CALM,��
2021/12/06,16:40,0.581,0.870,0.553,1.067,0.744,0.352,0.611,0.577,-,CALM,��
2021/12/06,16:50,0.579,0.870,0.550,1.066,0.746,0.351,0.609,0.578,-,CALM,��
2021/12/06,17:00,0.580,0.870,0.551,1.067,0.744,0.352,0.611,0.578,-,CALM,��
2021/12/06,17:10,0.580,0.870,0.551,1.067,0.746,0.350,0.610,0.578,�k��,0.6,��
2021/12/06,17:20,0.580,0.870,0.550,1.065,0.746,0.351,0.609,0.577,�k��,0.9,��
2021/12/06,17:30,0.580,0.869,0.550,1.068,0.746,0.350,0.610,0.578,���k��,1.4,��
2021/12/06,17:40,0.579,0.869,0.549,1.067,0.745,0.351,0.609,0.578,���k��,0.9,��
2021/12/06,17:50,0.580,0.871,0.550,1.065,0.746,0.351,0.610,0.577,�k��,1.7,��
2021/12/06,18:00,0.580,0.867,0.552,1.067,0.745,0.350,0.611,0.577,�k�k��,1.7,��
2021/12/06,18:10,0.581,0.869,0.552,1.066,0.745,0.351,0.611,0.578,�k��,1.4,��
2021/12/06,18:20,0.579,0.867,0.551,1.066,0.742,0.351,0.611,0.577,�k�k��,1.5,��
2021/12/06,18:30,0.580,0.868,0.551,1.067,0.743,0.351,0.610,0.578,�k�k��,1.1,��
2021/12/06,18:40,0.581,0.868,0.550,1.064,0.745,0.351,0.611,0.578,�k�k��,1.2,��
2021/12/06,18:50,0.580,0.869,0.551,1.065,0.745,0.352,0.611,0.576,�k�k��,1.5,��
2021/12/06,19:00,0.581,0.869,0.549,1.067,0.745,0.351,0.612,0.577,�k�k��,1.4,��
2021/12/06,19:10,0.580,0.869,0.552,1.067,0.745,0.351,0.611,0.578,�k,1.5,��
2021/12/06,19:20,0.581,0.868,0.552,1.066,0.743,0.351,0.609,0.578,�k�k��,1.2,��
2021/12/06,19:30,0.579,0.869,0.552,1.068,0.745,0.352,0.611,0.576,-,CALM,��
2021/12/06,19:40,0.580,0.870,0.551,1.067,0.745,0.352,0.611,0.578,-,CALM,��
2021/12/06,19:50,0.581,0.869,0.551,1.066,0.745,0.350,0.610,0.578,-,CALM,��
2021/12/06,20:00,0.581,0.870,0.551,1.067,0.745,0.351,0.610,0.577,-,CALM,��
2021/12/06,20:10,0.581,0.870,0.551,1.067,0.746,0.351,0.611,0.578,-,CALM,��
2021/12/06,20:20,0.581,0.868,0.551,1.066,0.745,0.351,0.610,0.578,��,0.8,��
2021/12/06,20:30,0.582,0.870,0.550,1.066,0.744,0.351,0.613,0.577,-,CALM,��
2021/12/06,20:40,0.580,0.868,0.551,1.066,0.745,0.350,0.611,0.578,�쓌,0.6,��
2021/12/06,20:50,0.578,0.868,0.549,1.065,0.744,0.350,0.609,0.578,�쓌,0.6,��
2021/12/06,21:00,0.581,0.869,0.553,1.066,0.747,0.350,0.611,0.577,�쓌,0.8,��
2021/12/06,21:10,0.581,0.868,0.551,1.068,0.745,0.351,0.611,0.579,�k�k��,0.9,��
2021/12/06,21:20,0.580,0.868,0.551,1.065,0.746,0.352,0.611,0.578,�k,1.4,��
2021/12/06,21:30,0.580,0.868,0.551,1.067,0.746,0.353,0.612,0.579,�k�k��,0.6,��
2021/12/06,21:40,0.579,0.869,0.551,1.067,0.745,0.350,0.612,0.577,��,0.9,��
2021/12/06,21:50,0.581,0.868,0.553,1.068,0.746,0.352,0.610,0.578,�k��,0.8,��
2021/12/06,22:00,0.580,0.870,0.552,1.064,0.747,0.354,0.612,0.577,�k�k��,0.8,��
2021/12/06,22:10,0.582,0.871,0.549,1.067,0.744,0.351,0.610,0.578,���k��,1.7,��
2021/12/06,22:20,0.580,0.870,0.549,1.065,0.745,0.351,0.612,0.576,�k��,2.3,��
2021/12/06,22:30,0.580,0.871,0.550,1.069,0.744,0.351,0.610,0.577,�k��,1.4,��
2021/12/06,22:40,0.578,0.867,0.550,1.066,0.745,0.351,0.612,0.577,�k�k��,0.9,��
2021/12/06,22:50,0.581,0.869,0.550,1.067,0.744,0.352,0.610,0.577,�k��,1.7,��
2021/12/06,23:00,0.581,0.868,0.551,1.067,0.745,0.351,0.610,0.579,�k��,2.3,��
2021/12/06,23:10,0.580,0.868,0.551,1.067,0.744,0.352,0.610,0.578,�k�k��,1.9,��
2021/12/06,23:20,0.581,0.870,0.551,1.068,0.745,0.351,0.612,0.578,�k�k��,2.0,��
2021/12/06,23:30,0.581,0.870,0.552,1.067,0.745,0.351,0.610,0.578,�k�k��,1.9,��
2021/12/06,23:40,0.583,0.871,0.551,1.066,0.745,0.352,0.611,0.578,�k�k��,2.0,��
2021/12/06,23:50,0.581,0.869,0.551,1.064,0.746,0.353,0.611,0.578,�k,1.5,��
